Home > Weather > Barrie > Past weeks

Flag for Canada Weather for the Past 2 Weeks in Barrie, Ontario, Canada

Now
-8 °F

Light snow. Ice fog.


Feels Like: -25 °F
Forecast: -18 / 7 °F
Wind: 9 mph from North

Location: Borden

Current Time: Feb 13, 2016 at 7:52:38 PM

Latest Report: Feb 13, 2016 at 7:00 PM


Visibility: 0 mi

Pressure: 30.47 "Hg

Humidity: 70%

Dew point: -15 °F

Location of BarrieLocation

Historic Weather in Barrie — Graph

°F

Barrie Temperature Yesterday

Maximum temperature yesterday: 21 °F (at 12:00 PM)
Minimum temperature yesterday: 3 °F (at 1:00 AM)
Average temperature yesterday: 13 °F

High & Low Weather Summary for the Past Weeks

 TemperatureHumidityPressure
High57 °F (Feb 3, 3:00 PM)100% (Jan 31, 6:00 PM)30.44 "Hg (Jan 31, 6:00 PM)
Low-18 °F (Feb 13, 6:04 AM)42% (Feb 13, 4:00 AM)29.40 "Hg (Jan 31, 9:57 PM)
Average26 °F79%29.90 "Hg
* Reported Jan 29 6:00 PM — Feb 13 6:00 PM, Barrie, Weather by CustomWeather, © 2016

Note: Actual official high and low records may vary slightly from our data, if they occured in-between our weather recording intervals... More about our weather records

Advertising

Barrie Weather History for the Previous 24 Hours

 ConditionsComfort  
Time TempWeatherWind HumidityBarometerVisibility
6:00 PM
Sat, Feb 13
-6 °FLight snow. Ice fog.6 mph70%30.44 "Hg1 mi
5:00 PM-6 °FLight snow. Ice fog.2 mph64%30.41 "Hg1 mi
4:00 PM-8 °FLight snow. Ice fog.2 mph70%30.40 "Hg1 mi
3:04 PM-8 °FLight snow. Ice fog.5 mph70%30.32 "Hg1 mi
3:01 PM-8 °FLight snow. Ice fog.3 mph70%30.31 "Hg1 mi
2:00 PM-9 °FLight snow. Ice fog.3 mph70%30.39 "Hg1 mi
1:02 PM-11 °FLight snow. Ice fog.2 mph70%30.32 "Hg1 mi
12:00 PM-11 °FLight snow. Ice fog.No wind70%30.40 "Hg1 mi
11:00 AM-15 °FIce fog.2 mph69%30.40 "Hg1 mi
10:45 AM-15 °FIce fog.2 mph69%30.33 "Hg1 mi
10:00 AM-17 °FIce fog.7 mph63%30.40 "Hg1 mi
9:00 AM-17 °FLight snow. Ice fog.3 mph63%30.38 "Hg1 mi
8:00 AM-18 °FLight snow. Ice fog.No wind62%30.36 "Hg1 mi
7:47 AM-18 °FLight snow. Ice fog.5 mph62%30.28 "Hg1 mi
7:00 AM-18 °FLight snow. Ice fog.5 mph62%30.33 "Hg1 mi
6:04 AM-18 °FIce fog.6 mph62%30.24 "Hg1 mi
5:01 AM-17 °FLight snow. Ice fog.9 mph57%30.22 "Hg1 mi
4:00 AM-15 °FIce fog.9 mph42%30.24 "Hg1 mi
3:03 AM-11 °FIce fog.14 mph91%30.15 "Hg1 mi
3:02 AM-11 °FLight snow. Ice fog.15 mph91%30.15 "Hg1 mi
2:00 AM-9 °FLight snow. Ice fog.15 mph92%30.16 "Hg1 mi
1:58 AM-9 °FLight snow. Ice fog.17 mph92%30.10 "Hg1 mi
1:00 AM-6 °FLight snow. Ice fog.13 mph92%30.12 "Hg1 mi
12:00 AM0 °FLight snow. Ice fog.12 mph84%30.08 "Hg1 mi
11:00 PM
Fri, Feb 12
5 °FLight snow. Ice fog.8 mph85%30.03 "Hg1 mi
10:04 PM7 °FLight snow. Ice fog.10 mph92%29.95 "Hg1 mi
9:01 PM10 °FLight snow. Ice fog.12 mph92%29.91 "Hg1 mi
8:00 PM12 °FLight snow. Ice fog.8 mph92%29.94 "Hg0 mi
7:00 PM14 °FLight snow. Ice fog.8 mph92%29.91 "Hg0 mi
Weather by CustomWeather, © 2016

See weather overviewHow to use our weather pages